Olympia, WA
on Wednesday, December 19, 2012

Wednesday
Previous Day Next Day
Daily Summary
 ActualAverageRecord
Temperature
Mean Temperature °F 38°F  
Max Temperature 42°F 44°F 55°F (1959)
Min Temperature 35°F 32°F 11°F (2008)
Degree Days
Heating Degree Days 26 27  
Month to date heating degree days 448 502  
Since 1 July heating degree days 1835 1947  
Cooling Degree Days 0 0  
Month to date cooling degree days 0 0  
Year to date cooling degree days 82 106  
Moisture
Dew Point 36°F   
Average Humidity 86    
Maximum Humidity 93    
Minimum Humidity 79    
Precipitation
Precipitation 1.18 in 0.22 in 1.38 in (1948)
Month to date precipitation 7.58 4.71  
Year to date precipitation 57.43 47.25  
Wind
Wind Speed 17 mph   
Max Wind Speed 30 mph   
Max Gust Speed 43 mph   
Visibility 8 miles   
Events Rain   

Key: T is trace of precipitation, MM is missing value
Source: NWS Daily Summary
Time(PST)TemperatureDew PointHumidity Pressure Visibility Wind DirectionWind SpeedGust SpeedPrecipitationEvents Conditions
12:13 AM 35.1°F 32.0°F 89% 29.96 in 10.0 miles SSW 10.4 mph - N/A   Overcast
12:54 AM 36.0°F 32.0°F 86% 29.94 in 9.0 miles South 12.7 mph 20.7 mph 0.00 in Rain Light Rain
1:04 AM 36.0°F 32.0°F 86% 29.93 in 10.0 miles South 12.7 mph - 0.00 in   Overcast
1:54 AM 36.0°F 32.0°F 86% 29.91 in 10.0 miles South 11.5 mph - 0.00 in Rain Light Rain
2:04 AM 36.0°F 32.0°F 86% 29.90 in 9.0 miles South 10.4 mph - 0.00 in Rain Light Rain
2:19 AM 36.0°F 32.0°F 86% 29.88 in 7.0 miles SSE 17.3 mph 24.2 mph 0.00 in Rain Light Freezing Rain
2:35 AM 36.0°F 32.0°F 86% 29.87 in 7.0 miles South 12.7 mph 21.9 mph 0.01 in Rain Light Rain
2:54 AM 36.0°F 33.1°F 89% 29.87 in 10.0 miles South 12.7 mph - 0.02 in Rain Light Rain
3:54 AM 36.0°F 33.1°F 89% 29.83 in 10.0 miles South 18.4 mph 27.6 mph 0.02 in   Overcast
4:54 AM 37.0°F 33.1°F 86% 29.80 in 10.0 miles SSW 19.6 mph 28.8 mph 0.00 in   Overcast
5:54 AM 37.0°F 33.1°F 86% 29.78 in 10.0 miles SSW 20.7 mph 28.8 mph 0.00 in Rain Light Rain
6:54 AM 37.9°F 34.0°F 86% 29.77 in 9.0 miles SSW 21.9 mph 36.8 mph 0.00 in Rain Light Rain
7:54 AM 37.9°F 34.0°F 86% 29.73 in 10.0 miles South 17.3 mph 28.8 mph 0.00 in Rain Light Rain
8:26 AM 39.0°F 34.0°F 82% 29.71 in 10.0 miles South 20.7 mph 33.4 mph 0.00 in   Overcast
8:54 AM 39.0°F 34.0°F 82% 29.71 in 10.0 miles South 21.9 mph 29.9 mph 0.00 in   Overcast
9:54 AM 39.9°F 35.1°F 83% 29.70 in 10.0 miles South 20.7 mph 38.0 mph 0.00 in   Overcast
10:54 AM 41.0°F 35.1°F 79% 29.68 in 10.0 miles South 20.7 mph 35.7 mph N/A   Overcast
11:27 AM 42.1°F 34.0°F 73% 29.66 in 10.0 miles South 27.6 mph 36.8 mph N/A   Overcast
11:36 AM 42.1°F 35.1°F 76% 29.66 in 9.0 miles South 20.7 mph 43.7 mph 0.00 in Rain Light Rain
11:54 AM 41.0°F 36.0°F 82% 29.65 in 8.0 miles South 25.3 mph 34.5 mph 0.00 in Rain Light Rain
12:54 PM 41.0°F 37.0°F 86% 29.62 in 6.0 miles South 20.7 mph 31.1 mph 0.03 in Rain Light Rain
1:54 PM 41.0°F 37.9°F 89% 29.62 in 3.0 miles SSW 16.1 mph 27.6 mph 0.04 in Rain Rain
2:54 PM 41.0°F 37.9°F 89% 29.64 in 3.0 miles SSW 20.7 mph 25.3 mph 0.17 in Rain Rain
3:54 PM 39.9°F 37.9°F 93% 29.65 in 5.0 miles South 24.2 mph 32.2 mph 0.18 in Rain Heavy Rain
4:54 PM 39.9°F 37.0°F 89% 29.67 in 4.0 miles SSW 17.3 mph 28.8 mph 0.28 in Rain Rain
5:04 PM 39.9°F 37.0°F 89% 29.67 in 4.0 miles South 15.0 mph - 0.04 in Rain Rain
5:54 PM 39.0°F 37.0°F 93% 29.67 in 8.0 miles South 21.9 mph 29.9 mph 0.10 in Rain Light Rain
6:00 PM 39.0°F 37.0°F 93% 29.66 in 7.0 miles South 21.9 mph 29.9 mph 0.01 in Rain Light Rain
6:54 PM 39.9°F 37.0°F 89% 29.65 in 8.0 miles South 20.7 mph 32.2 mph 0.08 in Rain Light Rain
7:54 PM 39.0°F 37.0°F 93% 29.64 in 6.0 miles South 10.4 mph 20.7 mph 0.07 in Rain Light Rain
8:54 PM 39.9°F 37.9°F 93% 29.62 in 7.0 miles South 10.4 mph - 0.04 in Rain Light Rain
9:54 PM 41.0°F 37.9°F 89% 29.60 in 5.0 miles SSW 15.0 mph 20.7 mph 0.05 in Rain Light Rain
10:15 PM 41.0°F 39.0°F 93% 29.59 in 5.0 miles South 8.1 mph - 0.03 in Rain Light Rain
10:23 PM 39.9°F 39.0°F 97% 29.58 in 7.0 miles South 5.8 mph - 0.04 in Rain Light Rain
10:38 PM 41.0°F 39.0°F 93% 29.57 in 5.0 miles South 5.8 mph - 0.05 in Rain Light Rain
10:54 PM 41.0°F 39.0°F 93% 29.57 in 6.0 miles South 6.9 mph - 0.06 in Rain Light Rain
11:03 PM 41.0°F 39.2°F 93% 29.56 in 6.0 miles South 5.8 mph - N/A Rain Light Rain
11:54 PM 42.1°F 39.9°F 92% 29.53 in 8.0 miles South 8.1 mph - 0.04 in Rain Light Rain
Moon Phase
Dec. 19 Dec. 20 Dec. 28 Jan. 04 Jan. 11
Sunrise:07:53 AM (PST) Moon Rise:11:39 AM (PST)12/19
Sunset:04:24 PM (PST) Moon Set:No Moon Set/

Copyright © 2014 The Weather Underground, Inc.